User: anonymous   Login
Location: Los Gatos B&B
(42.6926°N, 77.0646°W)
Time: 23:11:25
(UTC-04:00)
Language:

Cosmos 2263 Rocket - Orbit

View from above orbital plane
View from above orbital plane
View from above satellite
View from above satellite

Ground track
Ground track

The orbit data is extracted from the following two-line orbital elements,

1 22803U 93059B   15091.49760279  .00000134  00000-0  90950-4 0  9996
2 22803 070.9897 151.3501 0017302 183.3673 176.7337 14.16704594113883
Epoch (UTC): 01 April 2015 11:56:32
Eccentricity: 0.0017302
inclination: 70.9897°
perigee height: 824 km
apogee height: 849 km
right ascension of ascending node: 151.3501°
argument of perigee: 183.3673°
revolutions per day: 14.16704594
mean anomaly at epoch: 176.7337°
orbit number at epoch: 11388

The dashed part of the orbit path shows where the satellite is in the earth's shadow,  

DLR